Location: Beccas
(43.4309°N, 0.1528°E)
Time: 11:07:21
(UTC+00:00)

Feng Yun 1-1 Rocket - Pass Details

Date: 15 October 2021
Orbit: 830 x 933 km, 99.2° (Epoch: 03 December)

Event Time Altitude Azimuth Distance (km) Brightness Sun altitude
Rises 18:47:06 0° 170° (S) 3,378 7.2 -17.3°
Reaches altitude 10° 18:49:27 10° 172° (S) 2,458 6.5 -17.7°
Maximum altitude 18:54:52 71° 257° (WSW) 908 4.5 -18.7°
Drops below altitude 10° 19:00:30 10° 341° (NNW) 2,537 7.0 -19.7°
Sets 19:02:57 0° 344° (NNW) 3,495 7.7 -20.2°
